Regional Weather Roundup
Issued by NWS

Home | Current Version | Previous Version | Graphics & Text | Print | Product List | Glossary On
Versions: 1 2 3 4 5 6 7 8 9 10 11 12 13 14 15 16 17 18 19 20 21 22 23 24 25 26 27 28 29 30 31 32 33 34 35 36 37 38 39 40 41 42 43 44 45 46 47 48 49 50
000
ASUS43 KOAX 210502
RWRNE

WEATHER ROUNDUP FOR NEBRASKA
NATIONAL WEATHER SERVICE OMAHA NE
1200 AM CDT MON MAY 21 2018

NOTES: SATELLITE DATA IS BEING USED TO AUGMENT CLOUD COVER ABOVE
       12000 FEET.
       "FAIR" INDICATES FEW OR NO CLOUDS BELOW 12,000 FEET WITH NO
       SIGNIFICANT WEATHER AND/OR OBSTRUCTIONS TO VISIBILITY.


NEZ001>004-019>022-054>056-210600-
NEBRASKA PANHANDLE

CITY           SKY/WX    TMP DP  RH WIND       PRES   REMARKS
SCOTTSBLUFF    PTCLDY    50  47  89 SE8       30.09F
ALLIANCE       CLEAR     45  44  97 SE6       30.09F
CHADRON        PTCLDY    46  41  82 E3        30.08F
GORDON         FAIR      45  40  82 E5        30.11S
KIMBALL        PTCLDY    46  44  94 SE6       30.12S
SIDNEY         CLEAR     44  43  96 S8        30.11F
$$

NEZ057>060-069>072-079>082-210600-
SOUTHWEST NEBRASKA

CITY           SKY/WX    TMP DP  RH WIND       PRES   REMARKS
NORTH PLATTE   CLEAR     53  51  93 SE7       30.11F
IMPERIAL       PTCLDY    48  47  96 S5        30.11F
LEXINGTON      FOG       49  48  96 CALM      30.12F VSB 1/4
MCCOOK         CLEAR     51  50  96 S5        30.11F
OGALLALA       CLEAR     49  47  93 CALM      30.10S
$$

NEZ005>010-023>029-035>040-094-210600-
NORTH CENTRAL NEBRASKA

CITY           SKY/WX    TMP DP  RH WIND       PRES   REMARKS
VALENTINE      CLOUDY    53  47  79 W3        30.11F
AINSWORTH      CLOUDY    53  50  90 SE3       30.11F
BROKEN BOW     CLOUDY    53  51  93 CALM      30.10F
O`NEILL        CLOUDY    54  52  92 S3        30.11F
ORD            CLOUDY    53  52  96 CALM      30.10F
THEDFORD       CLEAR     51  48  89 CALM      30.12F
$$

NEZ041-046>049-061>064-073>077-083>087-210600-
SOUTH CENTRAL NEBRASKA

CITY           SKY/WX    TMP DP  RH WIND       PRES   REMARKS
GRAND ISLAND   CLOUDY    54  51  90 N5        30.12F
AURORA         CLOUDY    52  52 100 N3        30.12S
HASTINGS       CLOUDY    54  52  93 CALM      30.12F
HEBRON         CLOUDY    55  52  92 N5        30.12S
HOLDREGE       CLEAR     48  48 100 CALM      30.12F FOG
KEARNEY        CLOUDY    54  51  90 CALM      30.13F
YORK           CLOUDY    52  52 100 N3        30.12F FOG
$$

NEZ011>018-030>034-042>045-210600-
NORTHEAST NEBRASKA

CITY           SKY/WX    TMP DP  RH WIND       PRES   REMARKS
NORFOLK        CLOUDY    52  52 100 NW3       30.10F FOG
ALBION         CLOUDY    52  51  95 CALM      30.11F
BLAIR          CLOUDY    56  56  98 NW3       30.07S FOG
COLUMBUS       CLOUDY    52  51  97 NW6       30.11F FOG
FREMONT        DRIZZLE   55  55  98 W8        30.09F
TEKAMAH        LGT RAIN  56  56 100 N10       30.07F FOG
WAYNE          CLOUDY    52  51  97 NW3       30.10S FOG
$$

NEZ050>053-065>068-078-088>093-210600-
SOUTHEAST NEBRASKA

CITY           SKY/WX    TMP DP  RH WIND       PRES   REMARKS
LINCOLN        CLOUDY    54  53  97 NW7       30.09F FOG
OMAHA EPPLEY   CLOUDY    58  56  93 N7        30.06F
BEATRICE       CLOUDY    55  55  99 NW7       30.10S
FALLS CITY     CLOUDY    59  55  87 NW9       30.05S
NEBRASKA CITY  CLOUDY    57  57 100 NW9       30.07F
PLATTSMOUTH    CLOUDY    57  55  93 W6        30.06F
$$

NEZ044-045-051>053-067-210600-
OMAHA AREA

CITY           SKY/WX    TMP DP  RH WIND       PRES   REMARKS
OMAHA EPPLEY   CLOUDY    58  56  93 N7        30.06F
BLAIR          CLOUDY    56  56  98 NW3       30.07S FOG
FREMONT        DRIZZLE   55  55  98 W8        30.09F
MILLARD        CLOUDY    58  56  94 NW8       30.07F
OFFUTT AFB     CLOUDY    58  57  96 W6        30.05S
PLATTSMOUTH    CLOUDY    57  55  93 W6        30.06F
WAHOO          DRIZZLE   55  53  93 NW9       30.08F
$$



USA.gov is the U.S. government's official web portal to all federal, state and local government web resources and services.